Tracking 18795 objects as of 22-August-2017
HD Live streaming from Space Station
objects crossing your sky now

CZ-3A DEB

Track CZ-3A DEB now!


NORAD ID: 35557
Int'l Code: 2007-003R
Perigee: 355.0 km
Apogee: 29,410.7 km
Inclination: 23.1 °
Period: 513.9 minutes
Semi major axis: 21253 km
RCS: 0.1574 m2 (medium)
Launch date: February 2, 2007
Source: People's Republic of China (PRC)
Launch site: Xichang Space Center, China (XSC)

Note: This is SATELLITE DEBRIS
Your satellite tracking list
Your tracking list is empty





NASA's NSSDC Master Catalog

Two Line Element Set (TLE):
1 35557U 07003R   17233.01178720  .00007541  00000-0  76552-2 0  9991
2 35557  23.1116 352.4014 6835414 208.8690  84.4107  2.80186313 81278
Source of the keplerian elements: AFSPC